Regional Weather Roundup
Issued by NWS

Home | Current Version | Previous Version | Graphics & Text | Print | Product List | Glossary On
Versions: 1 2 3 4 5 6 7 8 9 10 11 12 13 14 15 16 17 18 19 20 21 22 23 24 25 26 27 28 29 30 31 32 33 34 35 36 37 38 39 40 41 42 43 44 45 46 47 48 49 50
000
ASUS43 KLOT 072208
RWRIL

ILLINOIS REGIONAL WEATHER ROUNDUP
NATIONAL WEATHER SERVICE CHICAGO/ROMEOVILLE IL
500 PM CDT TUE JUL 07 2015

NOTE: "FAIR" INDICATES FEW OR NO CLOUDS BELOW 12,000 FEET WITH NO
SIGNIFICANT WEATHER AND/OR OBSTRUCTIONS TO VISIBILITY.

* THESE STATIONS ARE NOT UNDER NWS QUALITY CONTROL. THEY ALSO MAY NOT
  REPORT WEATHER SUCH AS PRECIPITATION OR FOG.

ILZ001-002-007-009-015-016-024-072300-
NORTHWEST ILLINOIS

CITY           SKY/WX    TMP DP  RH WIND       PRES   REMARKS
MOLINE         PTSUNNY   72  54  53 N7        30.05S HAZE
STERLING*      CLOUDY    72  55  56 N9        30.06R
SAVANNA*       PTSUNNY   71  52  50 N5        30.06S
$$

ILZ003-004-008-010-011-017-018-072300-
NORTH CENTRAL ILLINOIS

CITY           SKY/WX    TMP DP  RH WIND       PRES   REMARKS
ROCKFORD       PTSUNNY   71  52  50 N12       30.07R
FREEPORT*      PTSUNNY   67  52  57 N5        30.09R
ROCHELLE*      PTSUNNY   69  54  58 N8        30.06S
DE KALB*       CLOUDY    66  52  61 NE10      30.07R
PERU*          CLOUDY    71  55  58 NE8       30.05S
$$

ILZ005-006-012>014-019>023-072300-
NORTHEAST ILLINOIS

CITY           SKY/WX    TMP DP  RH WIND       PRES   REMARKS
CHICAGO-OHARE  MOSUNNY   65  47  52 NE17      30.06R
CHICAGO-MIDWAY MOSUNNY   66  45  46 NE15G22   30.06R
AURORA         MOSUNNY   71  52  50 N7        30.05R
LANSING*       SUNNY     64  44  48 NE17G24   30.06R
JOLIET*        SUNNY     70  53  54 NE12      30.04R
WAUKEGAN       SUNNY     60  48  64 N12       30.07R
DUPAGE AIRPORT SUNNY     68  50  52 NE10      30.05R
KANKAKEE*      MOSUNNY   67  51  57 NE10G18   30.05S
WHEELING       SUNNY     63  46  54 NE16G26   30.08R
MORRIS*        CLOUDY    70  52  52 NE6       30.02S
ROMEOVILLE*    SUNNY     68  50  52 NE12      30.05R
NORTHERLY ISL    N/A     61  49  64 N14         N/A
$$

LMZ740>746-072300-
SOUTHERN LAKE MICHIGAN

STATION/POSITION SKY/WX   TEMP    WIND        PRES    VSBY  WAVE
                          AIR SEA DIR/SP/G                  HT/PER
                          (F)     (DEG/KT/KT) (MB)    (MI)  (FT/S)
HARRISON CRIB              58      20/ 19/ 22   N/A
BURNHAM HARBOR             61      20/ 10/ 15   N/A
CALUMET HARBOR             62     360/ 11/ 18   N/A
BURNS HARBOR               62      30/ 21/ 24 1017.6S
MICHIGAN CITY              61     350/ 24/ 27   N/A
MICHIGAN CITY 6N           62 65   20/ 19/ 25   N/A           8/ 7
ST. JOSEPH                 61 63   40/ 21/ 27   N/A           9/ 2
$$

ILZ025>027-034>036-040-047-049-050-058-095>099-072300-
WEST-CENTRAL ILLINOIS

CITY           SKY/WX    TMP DP  RH WIND       PRES   REMARKS
QUINCY         PTSUNNY   73  60  63 NE12      30.03S HAZE
GALESBURG*     PTSUNNY   73  59  62 NE12G17   30.05S
MACOMB*        PTSUNNY   72  59  63 NE8       30.06S HAZE
JACKSONVILLE*  CLOUDY    71  62  74 NE8       30.03S
PITTSFIELD*    PTSUNNY   69  63  81 E6        30.05R
$$

ILZ028>032-037-038-041>044-048-051>054-059>061-072300-
CENTRAL ILLINOIS

CITY           SKY/WX    TMP DP  RH WIND       PRES   REMARKS
PONTIAC        CLOUDY    71  59  65 NE8       30.04S
BLOOMINGTON    PTSUNNY   72  58  61 NE12      30.05R
DECATUR        CLOUDY    70  59  68 NE10      30.02S
PEORIA         PTSUNNY   75  58  55 VRB7      30.03S HAZE
LACON*         PTSUNNY   73  58  59 N6        30.03S HAZE
LINCOLN*       CLOUDY    71  60  68 N10       30.04R
SPRINGFIELD    PTSUNNY   72  61  68 NE14      30.03S
TAYLORVILLE    CLOUDY    66  61  82 N5        30.03R
$$

ILZ033-039-045-046-055>057-062-063-072300-
EAST-CENTRAL ILLINOIS

CITY           SKY/WX    TMP DP  RH WIND       PRES   REMARKS
CHAMPAIGN      CLOUDY    70  57  63 NE13G21   30.02S
DANVILLE*      RAIN      67  55  65 N13G18    30.00R
RANTOUL*       CLOUDY    70  54  57 NE16      30.03R
MATTOON        CLOUDY    63  61  93 NE15      30.01S FOG
PARIS*         CLOUDY    63  61  95 NE9       30.03R FOG
$$

ILZ079-100>102-072300-
SOUTHWEST ILLINOIS

CITY           SKY/WX    TMP DP  RH WIND       PRES   REMARKS
ALTON          LGT RAIN  66 N/A N/A N9        30.02R
BELLEVILLE     CLOUDY    71  70  98 VRB6      29.99R
CAHOKIA*       CLOUDY    71  66  84 N12       30.00S
SPARTA*        DRIZZLE   73  70  92 N8        29.99S
$$

ILZ064>066-069>071-074>076-080>082-084>086-088>090-092>094-072300-
SOUTH-CENTRAL ILLINOIS

CITY           SKY/WX    TMP DP  RH WIND       PRES   REMARKS
CARBONDALE     CLOUDY    77  74  90 SW7       29.97S
CAIRO*         DRIZZLE   75  73  93 W5        29.97F
EFFINGHAM*     LGT RAIN  65  61  87 N7        30.02S
MARION         CLOUDY    77  75  94 SW9       29.97F
MT. VERNON     CLOUDY    75  70  83 N3        29.97S
CENTRALIA*     CLOUDY    72  66  82 N9        29.98S
SALEM*         CLOUDY    73  68  82 N13       29.99S
$$

ILZ067-068-072-073-078-083-087-091-072300-
SOUTHEAST ILLINOIS

CITY           SKY/WX    TMP DP  RH WIND       PRES   REMARKS
LAWRENCEVILLE  LGT RAIN  71  70  96 N8        29.98R FOG
FLORA*         DRIZZLE   67  65  93 N8G18     30.00R
FAIRFIELD*     LGT RAIN  75  74  96 W3        29.95S
HARRISBURG*    LGT RAIN  78  77  95 W3        29.98S HX  82
ROBINSON*      CLOUDY    68  65  91 N5        30.00R
CARMI*         CLOUDY    79  72  78 SW8       29.96S HX  82
$$

ABBREVIATIONS USED IN REMARKS
   TC - TEMPERATURE IN CELSIUS
  WCI - WIND CHILL INDEX
   HX - HEAT INDEX
  VSB - VISIBILITY
$$



USA.gov is the U.S. government's official web portal to all federal, state and local government web resources and services.